sat.trackr.live / text

‹ back to catalog

UNKNOWN

NORAD 87405

UNKNOWN UNKNOWN UNKNOWN

§ Identity

Operator
Country
Launch date
Launch site
Launch vehicle
Mass (kg)
RCS (m²)

External: N2YO · Heavens-Above

§ Orbital elements

Epoch: 2026-09-18T13:35:42.675360Z

Period
103.06 min
Inclination
82.7520°
Eccentricity
0.0057445
Mean motion
13.97249466 rev/d
Perigee alt
861.5 km
Apogee alt
945.2 km
Semi-major
7,281.5 km
B*
9.3514e-4
RAAN
199.1869°
Arg perigee
246.9486°
Mean anomaly
112.5618°
Rev number
65,022

§ Raw data

UNKNOWN1 87405U          26261.56646615  .00001342  00000+0  93514-3 0  99942 87405  82.7520 199.1869 0057445 246.9486 112.5618 13.97249466650227

JSON: /api/v1/satellites/87405 · /tle

For live sub-satellite position, see the globe view (requires WebGL).

§ Visibility from observer

Set your observer location to see the next 7 days of passes ≥ 10°. The values pass through the URL so the page stays shareable.

No JS? Fill the form by hand. The geolocation button needs JavaScript.